Tiempo cada hora Dagestanskiye Ogni

Hoy, 23 Noviembre, Lunes

Tiempo Temperatura Precipitaciones Viento Presión Humedad
00:00 +7°C° 0 mm 2 mps 763 mmHg 89%
01:00 +7°C° 0 mm 2 mps 763 mmHg 89%
02:00 +8°C° 0 mm 1 mps 763 mmHg 89%
03:00 +8°C° 0 mm 1 mps 763 mmHg 88%
04:00 +7°C° 0.1 mm 2 mps 763 mmHg 89%
05:00 +7°C° 0.1 mm 3 mps 764 mmHg 90%
06:00 +6°C° 0.1 mm 5 mps 765 mmHg 91%
07:00 +5°C° 0.4 mm 6 mps 765 mmHg 85%
08:00 +5°C° 0.4 mm 7 mps 765 mmHg 80%
09:00 +3°C° 0 mm 9 mps 766 mmHg 73%
10:00 +5°C° 0 mm 9 mps 766 mmHg 73%
11:00 +5°C° 0 mm 8 mps 766 mmHg 72%
12:00 +5°C° 0 mm 8 mps 766 mmHg 72%
13:00 +5°C° 0 mm 7 mps 766 mmHg 74%
14:00 +5°C° 0 mm 7 mps 766 mmHg 76%
15:00 +4°C° 0 mm 6 mps 766 mmHg 77%
16:00 +4°C° 0 mm 6 mps 766 mmHg 78%
17:00 +5°C° 0 mm 5 mps 767 mmHg 79%
18:00 +4°C° 0 mm 4 mps 767 mmHg 80%
19:00 +4°C° 0 mm 4 mps 767 mmHg 80%
20:00 +4°C° 0 mm 3 mps 767 mmHg 80%
21:00 +4°C° 0 mm 3 mps 768 mmHg 80%
22:00 +4°C° 0 mm 3 mps 768 mmHg 80%
23:00 +3°C° 0 mm 3 mps 767 mmHg 81%

Mañana, 24 Noviembre, Martes

Tiempo Temperatura Precipitaciones Viento Presión Humedad
00:00 +4°C° 0 mm 2 mps 767 mmHg 81%
01:00 +4°C° 0 mm 2 mps 767 mmHg 81%
02:00 +4°C° 0 mm 2 mps 767 mmHg 82%
03:00 +5°C° 0 mm 1 mps 767 mmHg 82%
04:00 +4°C° 0 mm 1 mps 767 mmHg 80%
05:00 +4°C° 0 mm 1 mps 767 mmHg 77%
06:00 +4°C° 0 mm 1 mps 767 mmHg 74%
07:00 +4°C° 0 mm 2 mps 767 mmHg 69%
08:00 +5°C° 0 mm 2 mps 767 mmHg 64%
09:00 +7°C° 0 mm 2 mps 766 mmHg 59%
10:00 +7°C° 0 mm 3 mps 766 mmHg 60%
11:00 +7°C° 0 mm 4 mps 765 mmHg 60%
12:00 +8°C° 0 mm 4 mps 764 mmHg 60%
13:00 +8°C° 0 mm 5 mps 764 mmHg 64%
14:00 +7°C° 0 mm 5 mps 763 mmHg 68%
15:00 +7°C° 0 mm 5 mps 763 mmHg 73%
16:00 +7°C° 0 mm 5 mps 762 mmHg 76%
17:00 +6°C° 0 mm 5 mps 762 mmHg 80%
18:00 +5°C° 0 mm 4 mps 762 mmHg 83%
19:00 +5°C° 0 mm 4 mps 762 mmHg 83%
20:00 +5°C° 0 mm 3 mps 761 mmHg 82%
21:00 +6°C° 0 mm 2 mps 761 mmHg 82%
22:00 +5°C° 0 mm 3 mps 760 mmHg 80%
23:00 +7°C° 0 mm 3 mps 760 mmHg 78%

Pasado mañana, 25 Noviembre, Miércoles

Tiempo Temperatura Precipitaciones Viento Presión Humedad
00:00 +7°C° 0 mm 3 mps 760 mmHg 76%
01:00 +6°C° 0 mm 4 mps 760 mmHg 77%
02:00 +6°C° 0 mm 5 mps 759 mmHg 77%
03:00 +5°C° 0 mm 6 mps 759 mmHg 78%
04:00 +5°C° 0 mm 7 mps 759 mmHg 78%
05:00 +5°C° 0 mm 7 mps 759 mmHg 79%
06:00 +5°C° 0 mm 8 mps 759 mmHg 80%
07:00 +5°C° 0.2 mm 8 mps 760 mmHg 80%
08:00 +5°C° 0.2 mm 8 mps 760 mmHg 80%
09:00 +5°C° 0.2 mm 8 mps 760 mmHg 80%
10:00 +6°C° 0.1 mm 8 mps 760 mmHg 78%
11:00 +6°C° 0.1 mm 8 mps 760 mmHg 77%
12:00 +6°C° 0.1 mm 8 mps 760 mmHg 76%
13:00 +6°C° 0 mm 8 mps 760 mmHg 73%
14:00 +6°C° 0 mm 8 mps 760 mmHg 70%
15:00 +6°C° 0 mm 7 mps 760 mmHg 68%
16:00 +6°C° 0.1 mm 7 mps 760 mmHg 70%
17:00 +5°C° 0.1 mm 6 mps 761 mmHg 73%
18:00 +5°C° 0.1 mm 5 mps 761 mmHg 76%
19:00 +5°C° 0.1 mm 5 mps 762 mmHg 78%
20:00 +5°C° 0.1 mm 4 mps 762 mmHg 81%
21:00 +5°C° 0.1 mm 4 mps 762 mmHg 83%
22:00 +4°C° 0.1 mm 3 mps 762 mmHg 85%
23:00 +4°C° 0.1 mm 3 mps 762 mmHg 88%

26 Noviembre, Jueves

Tiempo Temperatura Precipitaciones Viento Presión Humedad
00:00 +4°C° 0.1 mm 3 mps 762 mmHg 90%
01:00 +4°C° 0 mm 3 mps 762 mmHg 89%
02:00 +4°C° 0 mm 3 mps 762 mmHg 88%
03:00 +4°C° 0 mm 3 mps 763 mmHg 87%
04:00 +4°C° 0.2 mm 3 mps 763 mmHg 89%
05:00 +4°C° 0.2 mm 3 mps 763 mmHg 91%
06:00 +4°C° 0.2 mm 3 mps 763 mmHg 93%
07:00 +4°C° 0.1 mm 3 mps 764 mmHg 90%
08:00 +4°C° 0.1 mm 3 mps 764 mmHg 87%
09:00 +5°C° 0.1 mm 3 mps 764 mmHg 84%
10:00 +5°C° 0.1 mm 3 mps 764 mmHg 80%
11:00 +5°C° 0.1 mm 3 mps 764 mmHg 77%
12:00 +7°C° 0.1 mm 3 mps 764 mmHg 73%
13:00 +7°C° 0 mm 3 mps 764 mmHg 74%
14:00 +7°C° 0 mm 3 mps 764 mmHg 74%
15:00 +7°C° 0 mm 3 mps 764 mmHg 75%
16:00 +5°C° 0.1 mm 3 mps 764 mmHg 77%
17:00 +5°C° 0.1 mm 3 mps 765 mmHg 80%
18:00 +6°C° 0.1 mm 2 mps 765 mmHg 82%
19:00 +6°C° 0.1 mm 2 mps 765 mmHg 83%
20:00 +5°C° 0.1 mm 2 mps 765 mmHg 84%
21:00 +5°C° 0.1 mm 2 mps 766 mmHg 85%
22:00 +5°C° 0.2 mm 2 mps 766 mmHg 85%
23:00 +4°C° 0.2 mm 2 mps 766 mmHg 85%

27 Noviembre, Viernes

Tiempo Temperatura Precipitaciones Viento Presión Humedad
00:00 +4°C° 0.2 mm 2 mps 766 mmHg 85%
01:00 +4°C° 0.1 mm 2 mps 766 mmHg 84%
02:00 +4°C° 0.1 mm 2 mps 767 mmHg 82%
03:00 +3°C° 0.1 mm 2 mps 767 mmHg 81%
04:00 +3°C° 0.1 mm 2 mps 767 mmHg 79%
05:00 +3°C° 0.1 mm 2 mps 768 mmHg 77%
06:00 +3°C° 0.1 mm 2 mps 768 mmHg 75%
07:00 +4°C° 0 mm 2 mps 769 mmHg 73%
08:00 +5°C° 0 mm 2 mps 769 mmHg 71%
09:00 +7°C° 0 mm 1 mps 769 mmHg 69%
10:00 +6°C° 0 mm 2 mps 769 mmHg 70%
11:00 +7°C° 0 mm 2 mps 769 mmHg 71%
12:00 +7°C° 0 mm 2 mps 769 mmHg 72%
13:00 +7°C° 0 mm 3 mps 769 mmHg 75%
14:00 +7°C° 0 mm 3 mps 769 mmHg 78%
15:00 +6°C° 0 mm 4 mps 769 mmHg 81%
16:00 +5°C° 0 mm 4 mps 769 mmHg 83%
17:00 +5°C° 0 mm 4 mps 769 mmHg 85%
18:00 +4°C° 0 mm 4 mps 769 mmHg 87%
19:00 +4°C° 0 mm 4 mps 769 mmHg 83%
20:00 +4°C° 0 mm 4 mps 768 mmHg 79%
21:00 +4°C° 0 mm 3 mps 768 mmHg 76%
22:00 +4°C° 0 mm 3 mps 768 mmHg 72%
23:00 +4°C° 0 mm 3 mps 768 mmHg 69%

28 Noviembre, Sábado

Tiempo Temperatura Precipitaciones Viento Presión Humedad
00:00 +5°C° 0 mm 2 mps 767 mmHg 66%
01:00 +5°C° 0 mm 2 mps 767 mmHg 62%
02:00 +5°C° 0 mm 2 mps 766 mmHg 57%
03:00 +6°C° 0 mm 1 mps 766 mmHg 53%
04:00 +5°C° 0 mm 2 mps 766 mmHg 52%
05:00 +5°C° 0 mm 2 mps 765 mmHg 51%
06:00 +5°C° 0 mm 2 mps 765 mmHg 51%
07:00 +6°C° 0 mm 2 mps 765 mmHg 49%
08:00 +8°C° 0 mm 2 mps 765 mmHg 46%
09:00 +10°C° 0 mm 1 mps 765 mmHg 44%
10:00 +11°C° 0 mm 1 mps 764 mmHg 43%
11:00 +12°C° 0 mm 1 mps 764 mmHg 41%
12:00 +12°C° 0 mm 1 mps 763 mmHg 40%
13:00 +12°C° 0 mm 1 mps 763 mmHg 43%
14:00 +12°C° 0 mm 1 mps 762 mmHg 46%
15:00 +12°C° 0 mm 1 mps 762 mmHg 49%
16:00 +10°C° 0 mm 2 mps 762 mmHg 51%
17:00 +9°C° 0 mm 2 mps 763 mmHg 53%
18:00 +8°C° 0 mm 3 mps 763 mmHg 54%
19:00 +8°C° 0 mm 3 mps 763 mmHg 54%
20:00 +8°C° 0 mm 2 mps 763 mmHg 53%
21:00 +8°C° 0 mm 2 mps 763 mmHg 53%
22:00 +7°C° 0 mm 2 mps 763 mmHg 53%
23:00 +7°C° 0 mm 2 mps 762 mmHg 53%
Mostrar más

Necesitamos Su Consentimiento

Meteoprog y nuestros Proveedores de Servicios pueden almacenar y acceder a sus datos personales como cookies, identificadores de dispositivo u otras tecnologías similares de su dispositivo y procesar dichos datos para personalizar contenido y anuncios, además de ofrecer funciones de redes sociales y analizar el tráfico.

  • Almacenar y/o acceder a información en su dispositivo

    Se puede almacenar o acceder a cookies, identificadores de dispositivo u otra información de su dispositivo para los fines anteriormente indicados.

  • Anuncios y contenido personalizados, medición de anuncios y contenido, percepciones del público, y desarrollo de productos

    Los anuncios y el contenido pueden personalizarse en base a su perfil. Se pueden añadir más datos para personalizar mejor los anuncios y contenidos. Se puede medir el rendimiento de los anuncios y contenidos. Se puede obtener la percepción sobre el público que ha visto los anuncios y contenidos. Dichos datos pueden usarse para desarrollar o mejorar la experiencia del usuario, sistemas y software.

Al hacer clic en ‘Estoy De Acuerdo’ usted permitirá el uso de las cookies, identificadores de dispositivo, balizas web u otras tecnologías similares indicadas. Su configuración puede cambiarse desde el navegador de su dispositivo.

Para ciertos fines, los intereses legítimos pueden ser considerados por encima del consentimiento. Puede leer más sobre ello en nuestra Política de Privacidad y Cookies.